Starlink 11572

operational
NORAD ID: 62990 Int'l Des: 2025-031 Owner: SPXS Country: US Constellation: starlink
LEOCIRCULAR

Über Starlink 11572

Beschreibung wird geladen...

Live-Position

3D-Globus wird geladen...

Nächste Überflüge

Höhenverlauf

Altitude vs Time

uPlot chart will show altitude changes over time

Zweizeiliger Elementsatz

1 62990U 25031K 25304.61087492 .00193300 00000-0 14731-2 0 9992
2 62990 42.9984 59.3267 0002069 303.6199 56.4471 15.70872306 42444
Epoch: 31. Okt. 2025 • Age: 10 hours

Aktueller Status

Höhe 359.9 km
Geschwindigkeit 7.70 km/s
Subsatellitenpunkt 40.83°N, 125.16°E
Startdatum 11. Feb. 2025
Alter 0.7 years
Typ internet

Technische Details

Klassifizierung Payload
Masse 960.00 kg
Trockenmasse 910.00 kg
Gesamtmasse 960.00 kg
Länge 0.30 m
Durchmesser 4.10 m
Spannweite 29.00 m
Form Box + pan
Hersteller SPXS
Bus-Typ Starlink V2MD
Phasenstatus In Orbit
Besitzer/Staat SPXS/US

Große Konstellationen

Loading constellations...